Station 45200 - Maumee Bay Buoy Image indicating link to RSS feed of recent meteorological observations for station 45200


Conditions at 45200 as of
(5:30 am EDT)
0930 GMT on 07/21/2024:
     

Click on the graph icon in the table below to see a time series plot of the last five days of that observation.

5-day plot - Wind Direction Wind Direction (WDIR): W ( 260 deg true )
5-day plot - Wind Speed Wind Speed (WSPD): 5.8 kts
5-day plot - Wind Gust Wind Gust (GST): 7.8 kts
5-day plot - Atmospheric Pressure Atmospheric Pressure (PRES):30.09 in
5-day plot - Air Temperature Air Temperature (ATMP): 70.9 °F
5-day plot - Water Temperature Water Temperature (WTMP): 77.7 °F
5-day plot - Dew Point Dew Point (DEWP): 62.8 °F
5-day plot - Wind Speed at 10 Meters Wind Speed at 10 meters (WSPD10M): 5.8 kts
5-day plot - Wind Speed at 20 Meters Wind Speed at 20 meters (WSPD20M): 5.8 kts
5-day plot -  Wind Speed, Wind Gust and Atmospheric Pressure Combined plot of Wind Speed, Gust, and Air Pressure
Previous observations
TIME
(EDT)
5-day plot - Wind Direction
WDIR
 
5-day plot - Wind Speed
WSPD
kts
5-day plot - Wind Gust
GST
kts
5-day plot - Wave Height
WVHT
ft
5-day plot - Dominant Wave Period
DPD
sec
5-day plot - Average Wave Period
APD
sec
5-day plot - Mean Wave Direction
MWD
 
5-day plot - Atmospheric Pressure
PRES
in
5-day plot - Pressure Tendency
PTDY
in
5-day plot - Air Temperature
ATMP
°F
5-day plot - Water Temperature
WTMP
°F
5-day plot - Dew Point
DEWP
°F
5-day plot - Salinity
SAL
psu
5-day plot - Visibility
VIS
nmi
5-day plot - Tide (above MLLW)
TIDE
ft
2024-07-21 05:20 am W 5.8 7.8----30.09- 71.1 77.7 63.0---
2024-07-21 05:10 am W 5.8 9.7----30.09- 71.2 77.7 63.1---
2024-07-21 05:00 amWNW 5.8 7.8----30.08+0.00 71.4 77.7 63.3---
2024-07-21 04:40 amWNW 7.8 11.7----30.08- 71.6 77.9 63.1---
2024-07-21 04:30 amWNW 7.8 9.7----30.08- 71.8 77.9 63.3---
2024-07-21 04:20 amWNW 7.8 9.7----30.08- 72.0 78.1 63.5---
2024-07-21 04:10 amWNW 7.8 11.7----30.07- 72.1 78.1 63.0---
2024-07-21 04:00 amWNW 7.8 9.7----30.08-0.01 72.5 78.1 63.0---
2024-07-21 03:40 am W 5.8 7.8----30.08- 72.7 78.3 62.2---
2024-07-21 03:30 am W 5.8 9.7----30.08- 72.9 78.3 62.1---
2024-07-21 03:20 am W 5.8 7.8----30.09- 73.0 78.3 61.2---
2024-07-21 03:10 am W 7.8 9.7----30.09- 73.2 78.4 60.4---
2024-07-21 03:00 am W 7.8 9.7----30.09+0.00 73.9 78.4 61.2---
2024-07-21 02:40 am W 5.8 7.8----30.09- 73.9 78.4 59.5---
2024-07-21 02:30 amWNW 5.8 7.8----30.08- 74.1 78.4 59.9---
2024-07-21 02:20 am- 5.8 7.8----30.08- 74.3 78.6 59.9---
2024-07-21 02:10 am- 5.8 7.8----30.08- 74.5 78.6 59.0---
2024-07-21 02:00 am- 5.8 7.8----30.08+0.00 74.3 78.6 59.2---
2024-07-21 01:40 am- 5.8 7.8----30.09- 74.3 78.6 60.1---
2024-07-21 01:30 am- 5.8 7.8----30.09- 75.0 78.6 62.1---
2024-07-21 01:20 am- 3.9 5.8----30.08- 75.6 78.6 60.4---
2024-07-21 01:10 am- 1.9 3.9----30.08- 75.7 78.6 59.7---
2024-07-21 01:00 am- 3.9 3.9----30.08+0.00 75.7 78.6 59.5---
2024-07-21 12:40 am- 3.9 5.8----30.08- 76.1 78.8 59.5---
2024-07-21 12:30 am- 3.9 5.8----30.08- 76.3 78.8 59.9---
2024-07-21 12:20 am- 3.9 5.8----30.09- 76.5 78.8 59.5---
2024-07-21 12:10 am- 3.9 3.9----30.09- 76.6 78.8 59.0---
2024-07-21 12:00 am- 3.9 5.8----30.09+0.01 76.6 78.8 58.6---
2024-07-20 11:40 pm- 3.9 5.8----30.09- 77.0 78.8 57.7---
2024-07-20 11:30 pm- 3.9 5.8----30.09- 77.0 78.8 57.9---
2024-07-20 11:20 pm- 3.9 5.8----30.09- 77.2 78.8 57.9---
2024-07-20 11:10 pm- 3.9 5.8----30.09- 77.4 78.8 57.6---
2024-07-20 11:00 pm- 5.8 7.8----30.09+0.02 77.4 78.6 57.6---
2024-07-20 10:40 pm- 5.8 7.8----30.09- 77.5 78.6 57.2---
2024-07-20 10:30 pm- 5.8 7.8----30.09- 77.7 78.8 56.7---
2024-07-20 10:20 pm- 5.8 7.8----30.09- 77.7 79.0 57.2---
2024-07-20 10:10 pm- 5.8 9.7----30.09- 77.7 79.0 57.4---
2024-07-20 10:00 pm- 7.8 9.7----30.08+0.01 77.7 79.2 58.5---
2024-07-20 09:40 pm- 5.8 9.7----30.08- 77.7 79.3 58.8---
2024-07-20 09:30 pm- 7.8 9.7----30.07- 77.9 79.5 59.0---
2024-07-20 09:20 pm- 7.8 9.7----30.07- 77.9 79.5 59.9---
2024-07-20 09:10 pm- 7.8 9.7----30.07- 77.9 79.7 60.6---
2024-07-20 09:00 pm- 7.8 9.7----30.07+0.00 78.1 79.9 61.3---
2024-07-20 08:40 pm- 7.8 9.7----30.07- 78.4 80.2 61.3---
2024-07-20 08:30 pm- 7.8 11.7----30.07- 78.4 80.6 61.5---
2024-07-20 08:20 pm- 7.8 11.7----30.06- 78.8 80.8 61.2---
2024-07-20 08:10 pm- 7.8 9.7----30.06- 79.2 81.0 60.3---
2024-07-20 08:00 pm- 5.8 7.8----30.06-0.01 79.3 80.8 59.5---
2024-07-20 07:50 pm- 5.8 7.8----30.06- 79.3 81.3 59.7---
2024-07-20 07:40 pm- 5.8 9.7----30.06- 79.5 80.6 59.4---
2024-07-20 07:30 pm- 5.8 7.8----30.06- 79.5 80.2 59.0---
2024-07-20 07:20 pm- 5.8 7.8----30.06- 79.5 80.8 59.2---
2024-07-20 07:10 pm- 5.8 9.7----30.06- 79.5 81.1 59.7---
2024-07-20 07:00 pm- 5.8 7.8----30.06-0.02 79.5 82.2 59.4---
2024-07-20 06:40 pm- 5.8 7.8----30.06- 79.7 81.5 59.4---
2024-07-20 06:30 pm- 5.8 7.8----30.07- 79.5 80.8 58.8---
2024-07-20 06:20 pm- 5.8 11.7----30.07- 79.5 82.0 59.0---
2024-07-20 06:10 pm- 5.8 9.7----30.07- 79.5 82.4 59.5---
2024-07-20 06:00 pm- 5.8 9.7----30.07-0.03 79.5 82.6 58.5---
2024-07-20 05:50 pm- 3.9 7.8----30.07- 79.5 82.2 58.1---
2024-07-20 05:40 pm- 3.9 5.8----30.07- 79.3 82.4 57.9---
2024-07-20 05:30 pm- 1.9 5.8----30.07- 79.3 82.2 58.1---
2024-07-20 05:20 pm- 1.9 5.8----30.07- 79.2 82.2 60.1---
2024-07-20 05:10 pm- 1.9 3.9----30.07- 78.4 81.7 59.7---
2024-07-20 05:00 pm- 1.9 3.9----30.08-0.03 78.3 81.5 59.7---
2024-07-20 04:40 pm- 3.9 7.8----30.08- 77.7 81.1 60.4---
2024-07-20 04:30 pm- 3.9 5.8----30.09- 77.7 80.6 60.6---
2024-07-20 04:20 pm- 3.9 5.8----30.09- 78.1 80.2 58.8---
2024-07-20 04:10 pm- 3.9 3.9----30.09- 78.1 80.1 59.0---
2024-07-20 04:00 pm- 1.9 3.9----30.09-0.03 78.1 79.9 58.5---
2024-07-20 03:40 pm- 1.9 3.9----30.09- 77.7 81.0 58.8---
2024-07-20 03:30 pm- 3.9 5.8----30.10- 77.5 79.7 59.2---
2024-07-20 03:20 pm- 3.9 5.8----30.10- 77.5 79.9 59.5---
2024-07-20 03:10 pm- 3.9 5.8----30.10- 77.7 79.7 58.6---
2024-07-20 03:00 pm- 1.9 3.9----30.10-0.02 77.9 79.5 57.7---
2024-07-20 02:40 pm- 1.9 3.9----30.11- 77.7 81.0 57.6---
2024-07-20 02:30 pm- 1.9 3.9----30.10- 77.5 79.7 57.9---
2024-07-20 02:20 pm- 1.9 3.9----30.11- 77.2 80.4 57.4---
2024-07-20 02:10 pm- 1.9 3.9----30.11- 77.0 80.1 58.1---
2024-07-20 02:00 pm- 1.9 3.9----30.11-0.02 77.2- 58.5---
2024-07-20 01:40 pm- 3.9 5.8----30.11- 76.1 78.8 58.6---
2024-07-20 01:30 pm- 3.9 5.8----30.11- 76.1 79.0 58.6---
2024-07-20 01:20 pm- 1.9 3.9----30.11- 75.9 79.2 58.1---
2024-07-20 01:10 pm- 1.9 3.9----30.11- 75.9 78.8 57.9---
2024-07-20 01:00 pm- 1.9 3.9----30.12+0.00 76.1 78.6 59.0---
2024-07-20 12:40 pm- 1.9 1.9----30.12- 75.4 78.6 58.8---
2024-07-20 12:30 pm- 1.9 3.9----30.12- 75.4 78.6 58.8---
2024-07-20 12:20 pm- 1.9 3.9----30.12- 75.7 78.4 58.6---
2024-07-20 12:10 pm- 1.9 1.9----30.12- 75.4 78.4 58.1---
2024-07-20 12:00 pm- 1.9 1.9----30.13+0.00 75.0 78.4 58.5---
2024-07-20 11:40 am- 1.9 1.9----30.12- 74.5 78.1 58.8---
2024-07-20 11:30 am- 1.9 3.9----30.13- 73.8 78.1 58.5---
2024-07-20 11:20 am- 1.9 3.9----30.13- 73.6 77.9 58.5---
2024-07-20 11:10 am- 3.9 5.8----30.13- 73.4 77.9 58.5---
2024-07-20 11:00 am- 3.9 5.8----30.13+0.01 73.2 77.7 58.3---
2024-07-20 10:40 am- 3.9 5.8----30.12- 72.7 77.5 57.9---
2024-07-20 10:30 am- 3.9 5.8----30.12- 72.7 77.4 57.7---
2024-07-20 10:20 am- 3.9 5.8----30.12- 72.5 77.4 56.8---
2024-07-20 10:10 am- 3.9 5.8----30.12- 72.3 77.4 57.2---
2024-07-20 10:00 am- 3.9 5.8----30.12+0.01 72.0 77.2 56.7---
2024-07-20 09:40 am- 3.9 5.8----30.12- 71.2 77.2 57.7---
2024-07-20 09:30 amNNW 3.9 5.8----30.13- 70.9 77.0 57.9---
2024-07-20 09:20 amWSW 3.9 5.8----30.13- 70.3 77.0 57.7---
2024-07-20 09:10 am W 5.8 9.7----30.13- 70.2 77.0 57.7---
2024-07-20 09:00 am W 5.8 7.8----30.13+0.01 70.2 77.0 57.4---
2024-07-20 08:40 am W 3.9 7.8----30.12- 70.0 77.0 58.6---
2024-07-20 08:30 am W 3.9 7.8----30.12- 70.0 77.0 57.9---
2024-07-20 08:20 am W 3.9 7.8----30.12- 70.0 77.0 57.7---
2024-07-20 08:10 am W 3.9 5.8----30.12- 70.0 77.0 58.5---
2024-07-20 08:00 am W 3.9 5.8----30.12+0.01 70.3 77.0 59.0---
2024-07-20 07:40 am W 3.9 5.8----30.11- 70.7 77.0 57.7---
2024-07-20 07:30 am W 3.9 5.8----30.11- 70.3 77.0 57.7---
2024-07-20 07:20 amWSW 3.9 5.8----30.11- 70.3 77.0 58.3---
2024-07-20 07:10 amWSW 3.9 5.8----30.11- 70.3 77.0 57.9---
2024-07-20 07:00 am W 3.9 5.8----30.11+0.00 70.3 77.0 57.9---
2024-07-20 06:50 amWSW 5.8 7.8----30.11- 70.3 77.0 57.4---
2024-07-20 06:40 am SW 3.9 7.8----30.11- 70.2 77.2 55.9---
2024-07-20 06:30 am SW 3.9 7.8----30.11- 70.0 77.2 56.3---
2024-07-20 06:20 am SW 3.9 5.8----30.11- 69.8 77.2 56.5---
2024-07-20 06:10 am SW 5.8 7.8----30.11- 69.8 77.2 56.8---
2024-07-20 06:00 am SW 5.8 7.8----30.11+0.00 69.4 77.2 57.7---
2024-07-20 05:40 amWSW 5.8 9.7----30.11- 69.1 77.4 57.6---
2024-07-20 05:30 am W 5.8 7.8----30.11- 68.9 77.4 57.7---
2024-07-20 05:20 am W 5.8 9.7----30.11- 69.3 77.4 58.6---
2024-07-20 05:10 am W 5.8 9.7----30.11- 69.4 77.4 59.0---
2024-07-20 05:00 am W 5.8 7.8----30.11+0.00 69.8 77.5 59.5---